Temperature
18 18 18 18 18 18 18 18 19 19 19 19 19 19 19 19 19 19 19 19 19 18 18 18 18 18 18 18 18 18 18 18 18 18 18 18 18 18 18 17 17 17 17
18 18 18 18 18 18 18 19 19 19 19 19 19 19 19 19 19 19 19 19 19 18 18 18 18 18 18 18 18 18 18 18 18 18 18 18 17 17 17 17 17 17 17
18 18 18 18 18 18 19 19 19 19 19 19 19 19 19 19 19 19 19 19 19 18 18 18 18 18 18 18 18 18 18 18 18 18 17 17 17 17 17 17 17 17 17
18 18 18 18 19 19 19 19 19 19 19 19 19 19 19 19 19 19 19 18 18 18 18 18 18 18 18 18 18 18 18 18 17 17 17 17 17 17 17 17 17 17 17
18 18 18 19 19 19 19 19 19 19 19 19 19 19 19 19 19 19 19 18 18 18 18 18 18 18 18 18 18 18 18 18 18 18 17 17 17 17 17 17 17 17 17
18 18 18 19 19 19 19 19 19 19 19 19 19 19 19 19 19 19 19 18 18 18 18 18 18 18 18 18 18 18 18 18 18 17 17 17 17 17 17 17 17 17 17
18 18 19 19 19 19 19 19 19 19 19 19 19 19 19 19 19 19 18 18 18 18 18 18 18 18 18 18 18 18 17 17 17 18 17 17 17 17 17 17 17 17 17
19 18 18 19 19 19 19 19 19 19 19 19 19 19 19 19 18 18 18 18 18 18 18 18 18 18 18 18 18 18 17 17 18 18 17 17 17 17 17 17 17 17 17
18 18 18 18 18 19 19 19 19 19 19 19 18 18 18 18 18 18 18 18 18 18 18 18 18 18 18 18 18 18 18 18 18 18 18 17 17 17 17 17 17 17 17
18 18 18 18 19 18 18 19 19 18 18 18 18 18 18 18 18 18 18 18 18 18 18 18 18 18 18 18 18 18 18 18 18 18 18 18 18 17 17 17 17 17 17
18 18 18 18 18 18 18 18 18 18 18 18 18 18 18 18 18 18 18 18 18 18 18 18 18 18 18 18 18 18 18 18 18 18 18 18 18 18 17 17 17 17 17
18 18 18 18 18 18 18 18 18 18 18 18 18 18 18 18 18 18 18 18 18 18 18 18 18 18 18 18 18 18 18 18 18 18 18 18 18 18 18 17 17 17 17
19 18 19 19 19 18 18 18 18 18 18 18 18 18 18 18 18 18 18 18 18 18 18 18 18 18 18 18 18 18 18 18 18 18 18 18 18 18 18 17 17 17 17
19 19 19 19 19 19 19 18 18 18 18 18 18 18 18 18 18 18 18 18 18 18 18 18 18 18 18 18 18 18 18 17 18 18 18 18 18 18 17 17 17 17 17
19 19 19 19 19 19 19 18 18 18 18 18 18 18 18 18 18 18 18 18 18 18 18 18 18 18 18 18 18 18 18 18 18 18 18 18 18 18 18 18 17 17 17
19 19 19 19 19 19 19 18 18 18 18 18 18 18 18 18 18 18 18 18 18 18 18 18 18 18 18 18 18 18 18 18 18 18 18 18 18 18 18 17 17 17 17
19 19 19 19 19 19 19 19 18 18 18 18 18 18 18 18 18 18 18 18 18 18 18 18 18 18 18 18 18 18 18 18 18 18 18 18 18 18 18 17 17 17 17
20 19 19 19 19 19 19 19 19 19 18 18 18 18 18 18 18 18 18 18 18 18 18 18 18 18 18 18 18 18 18 18 18 18 18 18 18 18 18 18 18 17 17
20 20 19 19 19 19 19 19 19 18 18 19 18 18 18 18 18 18 18 18 18 18 18 18 18 18 18 18 18 18 18 18 18 18 18 18 18 18 18 18 18 18 17
20 20 20 19 19 19 19 19 19 18 18 19 18 18 18 18 18 18 18 18 18 18 18 18 18 18 18 18 18 18 18 18 18 18 18 18 18 18 18 18 18 18 18
20 20 20 20 19 19 19 19 19 19 19 19 19 18 18 18 18 18 18 18 18 18 18 18 18 18 18 18 18 18 18 18 18 18 18 18 18 18 18 18 18 18 18
20 20 20 20 19 19 19 19 19 19 19 19 19 18 18 19 19 18 18 18 18 18 18 18 18 18 18 18 18 18 18 18 18 18 18 18 18 18 18 18 18 18 18
20 20 20 20 20 19 19 19 19 18 18 18 19 19 19 19 19 18 18 18 18 18 18 18 18 18 18 18 18 17 18 18 18 18 18 18 18 18 18 18 18 18 18
21 20 20 20 20 19 19 19 19 19 19 19 19 19 19 18 18 18 18 18 18 18 18 18 18 18 18 17 17 17 17 17 17 17 18 18 18 18 18 18 18 18 18
21 21 20 20 20 20 19 19 19 19 19 19 19 19 19 19 19 18 18 18 18 18 18 18 18 18 18 18 17 17 17 17 17 17 17 18 18 18 18 18 18 18 18
21 21 20 20 20 20 20 19 19 19 19 19 19 19 19 19 19 18 18 18 18 18 18 18 18 18 18 18 17 17 17 17 17 17 17 17 17 18 18 18 18 18 18
Wind_Speed
3 6 13 16 17 18 18 19 21 21 22 22 21 21 21 20 19 18 17 16 16 15 14 14 14 14 14 14 14 14 13 13 13 13 13 13 13 13 13 14 14 13 15
5 9 14 15 17 17 18 19 20 21 21 21 21 20 19 19 18 17 16 15 15 14 14 14 14 14 14 14 14 13 12 12 12 12 12 12 13 12 12 13 13 12 14
7 10 14 16 16 17 18 19 20 20 20 20 20 19 18 18 17 15 15 14 14 13 13 13 13 13 13 13 13 12 12 11 11 11 11 9 10 11 11 12 12 13 13
8 10 14 16 16 16 17 18 20 20 19 19 19 18 17 16 15 14 13 13 12 13 12 12 12 12 12 12 11 11 11 11 11 11 9 8 7 9 10 11 12 12 12
8 11 15 17 16 17 17 18 19 19 18 18 18 17 16 15 14 13 12 12 11 11 11 11 11 11 10 10 10 10 10 10 9 8 7 6 6 8 9 10 11 11 11
7 11 14 16 16 17 17 17 17 18 17 17 16 15 14 14 13 12 11 11 10 10 10 10 10 9 9 9 9 9 9 8 7 6 5 5 6 8 9 10 10 10 11
7 9 13 15 16 16 16 17 17 17 16 15 15 14 13 12 12 11 10 10 9 8 8 8 8 8 8 7 7 7 7 7 6 5 4 4 6 7 8 9 10 10 10
8 8 11 14 14 14 15 16 16 16 15 14 13 13 12 11 10 9 9 9 8 7 6 6 6 6 6 6 5 5 6 6 5 4 4 4 6 7 7 8 9 9 9
7 7 7 9 11 13 14 14 14 14 14 13 12 12 11 10 9 8 8 7 7 6 5 4 5 5 5 4 4 3 4 5 5 3 3 4 6 7 7 8 8 9 9
5 5 5 7 8 8 10 13 13 13 12 12 11 10 10 8 7 6 6 5 5 4 3 3 3 3 3 2 2 2 3 4 4 3 3 4 6 6 7 7 8 8 9
5 4 4 5 6 7 7 10 11 11 11 9 8 8 7 5 4 4 4 4 4 3 2 2 2 2 2 2 2 2 2 2 3 2 3 5 7 7 7 8 8 8 8
6 4 3 4 5 6 6 6 6 6 6 5 5 5 5 4 3 2 2 2 2 1 1 1 1 2 2 2 2 2 2 2 2 3 4 6 7 8 8 8 8 8 9
7 5 4 4 5 5 4 5 4 4 4 4 4 4 4 3 2 1 0 0 1 1 2 2 2 2 2 1 1 1 0 1 2 3 4 7 8 8 9 9 9 9 10
6 6 5 5 4 4 5 4 4 3 3 2 3 4 4 2 1 1 0 0 1 1 1 1 1 2 2 2 1 1 2 2 3 4 5 7 8 9 10 10 10 10 10
7 6 6 5 5 4 4 3 4 4 3 4 4 3 4 3 1 1 1 0 0 1 0 1 1 2 2 2 2 2 2 3 4 5 6 7 8 9 10 11 11 11 11
8 7 6 6 5 5 4 3 3 4 4 3 3 4 4 4 3 2 1 1 1 2 2 1 1 1 2 2 2 3 3 4 5 6 6 7 8 9 10 11 11 11 12
9 8 7 7 6 5 5 4 4 4 4 3 3 4 4 5 4 3 2 2 2 2 2 1 1 1 1 1 2 2 3 4 5 6 6 6 7 8 10 11 11 12 12
8 8 8 8 7 6 5 4 4 4 4 4 4 4 5 5 6 4 3 2 3 2 2 1 0 0 1 1 2 2 2 3 4 5 5 6 6 6 8 10 11 12 12
9 9 8 7 8 7 6 4 3 3 3 4 4 5 5 6 6 5 4 3 3 2 1 1 1 1 1 1 2 2 2 2 3 4 4 5 6 6 7 8 10 12 12
8 8 8 7 7 6 5 3 2 1 2 3 4 5 5 5 6 5 3 3 3 2 1 1 1 1 1 1 1 2 2 2 2 2 3 4 4 6 6 7 7 8 10
8 8 8 8 7 6 4 3 3 3 2 2 4 5 6 6 6 5 3 3 3 3 3 2 1 1 1 0 1 2 2 1 1 2 2 2 3 4 5 6 6 6 7
10 10 9 9 8 7 6 4 3 3 2 2 2 3 5 5 6 5 5 4 3 3 2 2 2 1 1 1 1 1 2 3 2 1 1 2 3 2 3 4 5 6 7
11 12 11 10 9 8 6 4 2 2 1 0 1 2 3 4 5 5 5 4 4 4 3 3 3 3 2 1 1 2 1 2 2 2 2 1 2 2 2 3 5 6 7
12 10 9 9 9 8 7 7 7 5 5 4 3 2 2 4 5 5 5 5 4 3 3 3 3 3 2 2 1 1 2 2 1 2 2 2 2 2 3 3 3 4 5
11 10 9 8 9 8 8 8 7 6 5 3 2 3 3 3 4 5 6 5 5 4 4 4 3 3 3 3 2 1 1 1 2 2 3 3 3 2 3 3 3 3 4
10 10 9 9 9 8 9 8 8 8 6 4 4 4 3 3 3 4 5 5 5 5 5 5 4 4 4 3 3 2 2 2 2 2 3 3 3 3 3 3 3 3 4
Wind_Direction
144 137 125 121 118 119 119 120 122 122 122 122 121 120 119 118 116 113 110 107 103 101 100 99 99 100 102 103 104 106 107 108 110 111 111 112 113 113 114 115 112 112 116
147 139 132 128 124 123 122 122 123 123 122 122 121 121 119 117 116 114 112 109 106 103 101 100 100 100 100 102 104 106 108 110 112 113 112 113 115 115 115 116 117 119 120
135 136 134 132 128 125 123 123 124 124 123 122 122 121 120 119 118 115 113 112 109 105 103 103 102 102 101 102 104 106 108 109 111 110 105 103 116 119 121 122 122 123 123
133 133 137 136 131 128 126 125 126 125 125 124 123 122 122 121 120 118 116 115 111 107 105 104 102 102 102 101 103 106 107 108 107 106 102 102 111 123 125 126 125 125 125
125 132 140 136 133 130 129 128 128 127 126 126 125 125 124 124 124 122 119 116 113 109 106 104 102 103 103 103 105 106 104 104 104 104 102 106 114 129 132 132 130 129 128
122 132 137 135 133 132 131 131 130 129 127 126 126 126 127 128 127 125 122 119 115 111 108 105 103 102 102 103 105 105 101 100 102 104 106 120 129 137 140 138 136 135 135
122 128 137 136 134 134 134 135 133 131 129 128 129 129 129 129 128 127 124 121 117 113 110 109 105 105 105 104 101 103 107 109 112 115 115 129 141 145 146 146 145 142 140
123 125 136 139 138 138 139 138 137 135 133 132 132 131 130 129 129 128 125 122 120 117 114 111 109 106 104 101 98 106 122 122 122 121 124 140 152 154 155 155 154 152 151
113 118 127 136 140 140 141 142 140 139 137 136 136 135 134 134 134 134 130 128 127 126 123 117 111 106 102 97 93 103 135 135 132 134 139 153 166 168 170 169 164 161 159
107 108 115 123 130 137 144 147 147 145 144 143 142 141 140 138 137 137 134 136 137 137 135 125 116 102 93 86 79 89 133 134 141 149 156 173 178 181 180 178 174 171 171
126 110 112 120 130 137 143 154 153 150 150 149 147 144 138 129 128 133 143 150 152 155 151 146 125 91 68 54 45 80 107 139 149 161 181 191 191 192 191 189 185 184 184
156 150 129 128 132 138 145 137 139 141 143 144 141 135 128 128 130 143 169 184 175 172 137 147 82 49 42 36 21 44 79 157 175 190 203 203 201 201 201 200 197 197 196
168 165 154 144 140 139 130 125 134 136 135 140 149 152 145 133 119 108 84 12 24 56 46 40 36 32 24 11 3 6 355 207 219 223 219 214 210 209 209 207 205 207 207
165 172 162 154 145 148 142 136 145 149 152 160 172 173 161 157 145 147 168 12 32 48 39 13 4 350 340 321 302 277 252 234 225 231 229 223 220 218 216 215 215 214 215
174 181 172 160 159 156 147 154 156 168 178 180 178 187 182 180 180 180 208 197 214 221 241 295 312 325 327 324 305 266 249 240 232 233 235 231 230 229 225 222 222 223 223
182 184 176 171 169 163 167 171 172 177 181 177 183 196 197 194 191 188 199 210 228 226 228 238 265 288 299 303 299 287 264 247 234 231 237 241 241 241 235 230 225 229 231
186 182 181 182 173 171 180 188 191 186 177 177 196 203 202 201 198 190 191 215 231 220 215 238 278 283 279 289 289 282 271 253 238 235 237 240 245 248 243 237 232 232 231
182 182 189 189 178 179 184 191 194 189 181 196 203 202 205 205 201 190 196 222 228 219 206 199 228 303 291 290 292 288 275 259 246 238 237 238 241 248 249 244 240 238 236
185 183 185 187 181 183 182 186 191 187 192 208 207 205 210 210 205 196 204 220 210 198 200 229 205 199 254 286 285 288 285 261 250 242 234 234 235 240 246 252 249 243 241
183 182 185 186 183 174 167 165 167 183 212 215 213 214 212 211 208 198 205 215 199 190 214 211 215 218 227 247 284 310 303 286 267 251 249 246 241 240 242 246 248 249 244
182 182 186 184 183 169 165 172 178 203 215 220 223 223 219 215 210 200 207 204 197 204 218 212 198 214 236 182 44 350 334 308 286 269 259 257 258 252 248 245 244 245 249
191 192 190 190 184 183 185 175 174 176 200 211 224 224 221 216 213 210 202 205 202 204 211 204 186 185 241 140 126 50 344 338 336 316 282 253 260 253 253 255 249 245 244
195 197 199 194 190 190 181 155 140 104 60 172 224 230 227 218 215 212 206 204 202 197 210 213 192 188 210 220 170 153 160 270 308 319 320 309 295 266 262 259 253 250 242
201 197 194 192 192 190 178 175 180 190 205 215 212 219 230 221 218 213 208 204 203 201 210 218 197 191 183 218 220 201 201 192 225 312 320 319 313 290 283 277 273 264 248
198 194 195 190 193 190 186 188 189 202 210 207 199 214 231 231 224 217 209 202 205 207 213 216 203 199 194 200 205 197 196 204 206 224 287 311 320 299 287 279 276 273 259
192 192 190 189 197 193 191 193 195 199 201 202 211 218 231 235 234 227 215 209 209 208 213 214 211 210 210 209 209 201 191 194 205 206 244 279 297 299 297 285 274 273 268
Height
1513 1514 1515 1516 1518 1520 1522 1524 1526 1528 1530 1532 1534 1536 1538 1539 1541 1543 1544 1546 1547 1548 1549 1550 1551 1552 1553 1554 1555 1556 1557 1558 1559 1560 1561 1561 1562 1563 1563 1564 1565 1566 1567
1513 1515 1517 1518 1520 1522 1524 1526 1528 1530 1532 1535 1537 1538 1540 1542 1544 1545 1547 1548 1549 1550 1551 1552 1553 1554 1555 1556 1557 1557 1558 1560 1561 1561 1562 1563 1564 1565 1565 1566 1567 1568 1569
1514 1516 1518 1520 1523 1525 1527 1529 1531 1533 1535 1537 1539 1541 1543 1544 1546 1548 1549 1550 1551 1552 1553 1554 1555 1556 1557 1558 1558 1559 1560 1561 1562 1563 1564 1565 1566 1567 1567 1568 1569 1570 1571
1515 1517 1519 1522 1525 1527 1529 1531 1533 1535 1538 1540 1542 1543 1545 1547 1548 1550 1551 1553 1554 1554 1555 1556 1557 1558 1558 1559 1560 1561 1562 1563 1564 1565 1566 1567 1567 1568 1569 1570 1570 1571 1572
1517 1519 1521 1524 1527 1529 1531 1533 1536 1538 1540 1542 1544 1546 1548 1549 1551 1552 1553 1555 1556 1556 1557 1558 1559 1559 1560 1561 1562 1563 1564 1565 1566 1567 1567 1568 1569 1570 1570 1571 1572 1573 1574
1520 1522 1524 1527 1529 1531 1533 1536 1538 1540 1543 1545 1547 1548 1550 1551 1553 1554 1555 1557 1557 1558 1559 1560 1561 1561 1562 1563 1564 1565 1565 1566 1567 1568 1569 1570 1570 1571 1572 1572 1573 1574 1575
1522 1525 1527 1529 1531 1534 1536 1538 1540 1542 1545 1547 1549 1550 1552 1553 1555 1556 1557 1558 1559 1560 1561 1562 1562 1563 1564 1564 1565 1566 1567 1568 1569 1569 1570 1571 1571 1572 1573 1574 1575 1575 1576
1525 1527 1530 1532 1534 1536 1538 1540 1542 1544 1547 1549 1551 1552 1554 1555 1557 1558 1559 1560 1561 1562 1562 1563 1564 1564 1565 1566 1567 1568 1569 1569 1570 1571 1571 1572 1572 1573 1574 1575 1575 1576 1577
1528 1530 1532 1534 1536 1538 1540 1542 1544 1546 1548 1550 1552 1554 1555 1557 1558 1559 1560 1561 1562 1563 1564 1565 1565 1566 1567 1568 1568 1569 1570 1571 1571 1572 1572 1573 1573 1574 1575 1575 1576 1577 1578
1530 1532 1534 1536 1538 1540 1542 1544 1546 1548 1550 1552 1554 1555 1557 1558 1560 1561 1562 1563 1564 1564 1565 1566 1566 1567 1568 1569 1569 1570 1571 1571 1572 1573 1573 1574 1574 1575 1575 1576 1577 1577 1578
1532 1534 1536 1538 1540 1542 1543 1545 1547 1549 1551 1553 1555 1557 1558 1560 1561 1562 1563 1564 1565 1566 1566 1567 1567 1568 1569 1570 1570 1571 1572 1572 1573 1573 1574 1574 1574 1575 1575 1576 1577 1578 1578
1532 1535 1537 1539 1541 1543 1545 1546 1549 1550 1553 1555 1557 1558 1560 1561 1562 1563 1564 1565 1566 1567 1567 1568 1568 1569 1570 1570 1571 1572 1572 1573 1573 1574 1574 1574 1575 1575 1576 1576 1577 1577 1578
1534 1536 1538 1541 1542 1544 1546 1548 1550 1552 1554 1556 1558 1560 1561 1562 1563 1564 1565 1566 1567 1567 1568 1569 1569 1570 1571 1571 1572 1572 1573 1573 1573 1574 1574 1574 1575 1575 1575 1576 1577 1577 1578
1535 1537 1540 1542 1544 1546 1548 1550 1551 1554 1556 1557 1559 1561 1562 1563 1564 1565 1566 1567 1567 1568 1569 1570 1570 1571 1571 1572 1572 1573 1573 1573 1573 1574 1574 1574 1575 1575 1575 1576 1576 1577 1577
1536 1539 1541 1543 1545 1547 1549 1551 1553 1555 1557 1558 1560 1562 1563 1564 1565 1566 1567 1567 1568 1569 1570 1570 1571 1571 1572 1572 1572 1573 1573 1573 1573 1573 1573 1574 1574 1574 1574 1575 1575 1575 1576
1537 1539 1542 1544 1546 1548 1550 1552 1554 1556 1557 1559 1561 1562 1564 1565 1566 1567 1567 1568 1569 1569 1570 1570 1571 1571 1571 1572 1572 1572 1572 1572 1572 1572 1573 1573 1573 1573 1573 1574 1574 1574 1574
1537 1540 1542 1544 1547 1549 1551 1553 1555 1557 1558 1560 1561 1563 1564 1565 1566 1567 1568 1568 1569 1569 1570 1570 1570 1571 1571 1571 1571 1571 1571 1571 1571 1571 1571 1571 1572 1572 1572 1572 1573 1573 1573
1537 1540 1542 1545 1547 1549 1551 1553 1555 1557 1559 1560 1562 1563 1564 1565 1566 1567 1568 1568 1569 1569 1569 1570 1570 1570 1570 1570 1570 1570 1570 1570 1570 1570 1570 1570 1570 1570 1571 1571 1571 1571 1571
1537 1539 1542 1544 1546 1549 1551 1553 1555 1557 1559 1560 1562 1563 1564 1565 1566 1567 1567 1568 1568 1568 1569 1569 1569 1569 1569 1569 1569 1569 1569 1569 1568 1568 1568 1568 1569 1569 1569 1569 1569 1569 1569
1536 1538 1541 1543 1546 1548 1551 1553 1555 1556 1558 1560 1561 1562 1563 1564 1565 1566 1567 1567 1567 1568 1568 1568 1568 1568 1567 1567 1567 1567 1567 1567 1567 1567 1567 1567 1567 1567 1567 1567 1567 1567 1567
1534 1536 1539 1542 1544 1547 1549 1551 1553 1555 1557 1559 1560 1561 1562 1563 1564 1565 1565 1566 1566 1567 1567 1567 1566 1566 1567 1566 1566 1566 1566 1566 1566 1565 1565 1565 1565 1565 1565 1565 1565 1565 1565
1531 1534 1537 1539 1542 1545 1547 1549 1552 1554 1555 1557 1558 1560 1561 1562 1563 1563 1564 1565 1565 1565 1565 1565 1565 1565 1565 1565 1565 1565 1565 1565 1564 1564 1564 1564 1564 1564 1564 1564 1563 1563 1562
1528 1531 1534 1537 1540 1543 1545 1548 1550 1552 1553 1555 1556 1558 1559 1560 1561 1562 1562 1563 1563 1564 1564 1564 1564 1564 1564 1564 1564 1565 1565 1563 1563 1563 1562 1562 1562 1562 1562 1562 1562 1561 1560
1525 1529 1532 1535 1538 1541 1543 1545 1547 1549 1550 1552 1554 1556 1557 1558 1559 1560 1560 1561 1561 1562 1562 1562 1562 1562 1562 1562 1563 1563 1564 1563 1563 1562 1561 1561 1561 1561 1561 1560 1560 1559 1559
1522 1526 1529 1533 1535 1538 1540 1542 1544 1546 1548 1550 1552 1553 1555 1556 1557 1558 1558 1559 1559 1559 1560 1560 1560 1560 1561 1561 1561 1561 1561 1562 1561 1561 1560 1559 1559 1559 1559 1558 1558 1557 1557
1519 1523 1526 1529 1532 1535 1537 1539 1541 1543 1545 1547 1549 1550 1552 1553 1554 1555 1556 1556 1557 1557 1557 1558 1558 1558 1558 1559 1559 1559 1559 1559 1559 1559 1558 1557 1556 1556 1556 1556 1555 1555 1555